SL-8 DEB, 1617

Orbit data source: Space-Track

SL-8 DEB, 1617 is space debris in LEO originally from a launch on Sat, 18 Sep 1965 UTC launched from the Tyuratam Missile And Space Complex (TTMTR). Debris objects in space refer to the collection of defunct objects orbiting the Earth. Examples of debris include non-operational satellites, rocket bodies, and fragments generated from explosions, collisions, or faulty payload assembly.

Loading next visibility...
Identifier
1617, 1965-073J
Orbit
LEO
Country
Flag of CISCIS
Related business
Manufacturer
Unknown
Mission
Spacecraft
Bus & Motor
Unknown
Mass
Unknown
Launch date (UTC)
1965-09-18 (60 years ago)
Launch vehicle
Unknown
Launch site
Tyuratam Missile And Space Complex (TTMTR)
Object type
Payload
Rocket body
Debris
Shape & HBR
Unknown shape, 0.2 m
Radar Cross Section
Medium (>0.1 m² and <1 m²)

Expand to show TLE details & history
Last TLE update: 1 day ago

TLE from 1 day ago
0 SL-8 DEB
1 01617U 65073J   25352.02246807  .00000008  00000-0  72363-3 0  9994
2 01617  56.1260 179.9878 0245683  72.7844  95.2668 12.34807635708062
Epoch: 2025-12-18T00:32Z
TLE epoch observation values (Epoch: 2025-12-18T00:32:21.241Z)
Latitude
7.55678°
Longitude
-100.06912°
Altitude
1,551.633 km
Speed
7.082 km/s
True Right ascension
23h 39m 36s
True Declination
7° 30' 60"
Sunlit
Object was in daylight at epoch
Visualization orbit readout
Latitude
Unknown
Longitude
Unknown
Altitude
Unknown
Speed
Unknown
Apparent Right ascension
Unknown
Apparent Declination
Unknown
Sunlit
N/A
Visualization observer readout
Local Sidereal Time
00:03:07
Azimuth
Unknown
Elevation
Unknown
Doppler factor
Unknown
Orbital elements
Apogee altitude
1,722.759 km
Perigee altitude
1,334.254 km
Semi-major axis
7,906.643 km
Eccentricity
0.02457
Inclination
56.126°
RAAN
179.9878°
Arg. of periapsis
72.7844°
True anomaly
98.06124°
Mean anomaly
95.2668°
Eccentric anomaly
96.66495°
Mean motion
3.08713 °/min
Orbital period
116.61 mins
BSTAR
0.00072363
Loading maneuver chart data...
Computing Atmospheric mass density...
Loading historical data...
Loading historical data...
Loading historical data...
Loading historical data...
Loading historical data...
Loading historical data...
Loading historical data...

Documentation

Showing up to 5 results
|